This is the latest recevied weather packets stored in our database for station/object WB0OCV. If no packets are shown the sender has not sent any weather packets the latest 10 day(s).
| Time | Temp. | Humidity | Pressure | Rain* | Wind** | Luminosity | Snow |
|---|---|---|---|---|---|---|---|
| 1778111043 | 13.89° C | 99% | 1010.7 hPa | 3.05 mm | - | 0 W/m² | - |
| 1778110740 | 13.89° C | 99% | 1010.6 hPa | 4.83 mm | - | 0 W/m² | - |
| 1778110435 | 13.89° C | 99% | 1010.9 hPa | 4.32 mm | - | 0 W/m² | - |
| 1778110132 | 13.89° C | 99% | 1010.7 hPa | 3.05 mm | - | 1 W/m² | - |
| 1778109828 | 13.89° C | 98% | 1011 hPa | 3.05 mm | - | 2 W/m² | - |
| 1778109524 | 13.89° C | 98% | 1010.9 hPa | 3.05 mm | - | 6 W/m² | - |
| 1778109223 | 13.89° C | 98% | 1011.3 hPa | 3.05 mm | - | 10 W/m² | - |
| 1778108920 | 13.89° C | 98% | 1011.4 hPa | 1.78 mm | - | 4 W/m² | - |
| 1778108616 | 13.89° C | 98% | 1011.5 hPa | 4.83 mm | - | 3 W/m² | - |
| 1778108312 | 13.89° C | 98% | 1011.2 hPa | 1.27 mm | - | 3 W/m² | - |
| 1778108010 | 13.89° C | 98% | 1011.2 hPa | 1.78 mm | - | 2 W/m² | - |
| 1778107707 | 14.44° C | 97% | 1011.3 hPa | 3.05 mm | - | 6 W/m² | - |
| 1778107404 | 14.44° C | 97% | 1011.4 hPa | 4.32 mm | - | 11 W/m² | - |
| 1778107100 | 14.44° C | 96% | 1011.4 hPa | 7.87 mm | - | 10 W/m² | - |
| 1778106795 | 14.44° C | 95% | 1011.5 hPa | 4.83 mm | - | 12 W/m² | - |
| 1778106493 | 14.44° C | 94% | 1011.4 hPa | 0 mm | - | 14 W/m² | - |
| 1778106188 | 14.44° C | 94% | 1011.4 hPa | 0 mm | - | 17 W/m² | - |
| 1778105887 | 14.44° C | 95% | 1011.3 hPa | 1.27 mm | - | 15 W/m² | - |
| 1778105584 | 15° C | 94% | 1011.3 hPa | 1.27 mm | - | 18 W/m² | - |
| 1778105282 | 15° C | 93% | 1011.5 hPa | 0 mm | - | 39 W/m² | - |
| 1778104982 | 15° C | 92% | 1011.4 hPa | 0 mm | - | 15 W/m² | - |
| 1778104679 | 15.56° C | 87% | 1011.2 hPa | 0 mm | - | 25 W/m² | - |
| 1778104375 | 15.56° C | 86% | 1011.6 hPa | 0 mm | - | 52 W/m² | - |
| 1778104071 | 16.11° C | 84% | 1011.4 hPa | 0 mm | - | 70 W/m² | - |
| 1778103768 | 16.11° C | 84% | 1011.5 hPa | 0 mm | - | 77 W/m² | - |
* Rain latest hour (hover to see other rain measurements)
** Current wind speed in m/s (hover to see current wind gust speed)